QPF
0.02 0.03 0.03 0.03 0.03 0.04 0.03 0.02 0.03 0.03 0.02 0.02 0.02 0.02 0.02 0.03 0.03 0.02 0.01 0.01 0.01 0.01 0.01 0.01 0.01 0.01 0.01 0.01 0.01 0.01 0.01 0.01 0.01 0.01 0.00 0.00 0.00 0.00 0.00 0.00 0.00 0.00 0.00
0.02 0.03 0.05 0.06 0.04 0.07 0.06 0.03 0.03 0.03 0.02 0.02 0.03 0.02 0.02 0.03 0.03 0.02 0.01 0.01 0.01 0.01 0.01 0.01 0.01 0.02 0.02 0.01 0.01 0.01 0.01 0.01 0.00 0.00 0.00 0.00 0.00 0.00 0.00 0.00 0.00 0.00 0.00
0.02 0.02 0.04 0.05 0.06 0.11 0.08 0.03 0.03 0.02 0.02 0.02 0.02 0.02 0.02 0.02 0.03 0.02 0.01 0.01 0.01 0.01 0.01 0.01 0.01 0.01 0.01 0.01 0.01 0.01 0.01 0.01 0.00 0.00 0.01 0.00 0.00 0.00 0.00 0.00 0.00 0.00 0.00
0.02 0.03 0.04 0.04 0.06 0.09 0.05 0.03 0.02 0.02 0.01 0.01 0.01 0.01 0.01 0.02 0.02 0.01 0.01 0.01 0.01 0.01 0.01 0.01 0.01 0.01 0.01 0.02 0.02 0.02 0.02 0.01 0.01 0.00 0.01 0.01 0.00 0.00 0.00 0.00 0.00 0.00 0.00
0.03 0.03 0.03 0.04 0.05 0.05 0.04 0.03 0.02 0.01 0.01 0.01 0.01 0.01 0.01 0.02 0.01 0.01 0.01 0.01 0.01 0.01 0.01 0.01 0.01 0.01 0.01 0.01 0.01 0.01 0.02 0.01 0.01 0.01 0.01 0.00 0.01 0.01 0.00 0.00 0.00 0.00 0.00
0.02 0.02 0.02 0.04 0.04 0.04 0.03 0.03 0.02 0.01 0.01 0.01 0.01 0.01 0.01 0.01 0.01 0.01 0.01 0.01 0.01 0.01 0.01 0.01 0.01 0.01 0.00 0.00 0.00 0.01 0.01 0.01 0.01 0.01 0.01 0.01 0.01 0.00 0.00 0.00 0.01 0.01 0.00
0.02 0.02 0.01 0.01 0.02 0.03 0.03 0.03 0.02 0.01 0.01 0.01 0.01 0.01 0.01 0.01 0.01 0.01 0.01 0.01 0.01 0.01 0.01 0.01 0.01 0.00 0.01 0.00 0.00 0.01 0.01 0.01 0.02 0.02 0.01 0.01 0.01 0.01 0.01 0.01 0.01 0.01 0.01
0.01 0.01 0.01 0.00 0.01 0.01 0.02 0.03 0.02 0.02 0.02 0.02 0.01 0.01 0.00 0.01 0.01 0.01 0.01 0.01 0.01 0.01 0.01 0.01 0.01 0.01 0.01 0.01 0.01 0.00 0.01 0.01 0.02 0.02 0.01 0.01 0.01 0.02 0.01 0.01 0.01 0.02 0.02
0.00 0.00 0.01 0.01 0.01 0.01 0.01 0.02 0.03 0.02 0.02 0.02 0.01 0.01 0.00 0.01 0.01 0.01 0.01 0.01 0.01 0.01 0.01 0.00 0.00 0.00 0.01 0.01 0.00 0.00 0.00 0.00 0.01 0.01 0.01 0.01 0.01 0.01 0.01 0.01 0.01 0.02 0.01
0.01 0.01 0.01 0.01 0.01 0.02 0.02 0.02 0.02 0.02 0.01 0.02 0.02 0.01 0.01 0.01 0.01 0.01 0.01 0.01 0.01 0.01 0.01 0.00 0.00 0.00 0.00 0.00 0.00 0.00 0.00 0.00 0.01 0.01 0.01 0.01 0.01 0.01 0.01 0.01 0.01 0.01 0.01
0.01 0.01 0.01 0.01 0.02 0.01 0.02 0.01 0.01 0.02 0.02 0.01 0.01 0.01 0.01 0.01 0.01 0.01 0.01 0.02 0.02 0.01 0.01 0.00 0.00 0.01 0.01 0.00 0.01 0.00 0.01 0.00 0.00 0.00 0.00 0.01 0.01 0.01 0.01 0.01 0.01 0.01 0.01
0.00 0.01 0.01 0.01 0.02 0.01 0.01 0.01 0.02 0.02 0.02 0.02 0.02 0.03 0.03 0.02 0.02 0.02 0.02 0.03 0.03 0.02 0.01 0.01 0.00 0.01 0.01 0.01 0.01 0.01 0.01 0.01 0.00 0.00 0.01 0.01 0.01 0.01 0.01 0.01 0.01 0.01 0.01
0.00 0.00 0.01 0.01 0.01 0.02 0.01 0.01 0.01 0.02 0.03 0.04 0.05 0.05 0.05 0.05 0.05 0.05 0.05 0.04 0.03 0.02 0.01 0.01 0.01 0.01 0.01 0.01 0.01 0.02 0.01 0.01 0.01 0.01 0.01 0.01 0.01 0.01 0.01 0.01 0.01 0.01 0.01
0.00 0.00 0.01 0.01 0.01 0.01 0.01 0.02 0.02 0.02 0.03 0.04 0.04 0.05 0.05 0.06 0.05 0.04 0.04 0.03 0.02 0.01 0.01 0.01 0.01 0.01 0.01 0.01 0.01 0.01 0.01 0.01 0.01 0.01 0.01 0.01 0.02 0.02 0.02 0.02 0.02 0.02 0.01
0.00 0.00 0.01 0.01 0.01 0.01 0.02 0.03 0.04 0.03 0.02 0.02 0.02 0.02 0.03 0.02 0.03 0.04 0.04 0.03 0.02 0.02 0.03 0.02 0.01 0.01 0.02 0.02 0.01 0.01 0.01 0.02 0.02 0.02 0.02 0.02 0.02 0.02 0.02 0.02 0.02 0.02 0.02
0.00 0.00 0.00 0.01 0.02 0.02 0.02 0.01 0.03 0.04 0.02 0.02 0.02 0.02 0.02 0.02 0.03 0.04 0.04 0.03 0.03 0.03 0.03 0.03 0.02 0.01 0.01 0.01 0.01 0.02 0.02 0.02 0.03 0.03 0.04 0.04 0.03 0.02 0.02 0.02 0.02 0.02 0.02
0.00 0.00 0.01 0.01 0.03 0.03 0.02 0.02 0.03 0.05 0.04 0.03 0.02 0.03 0.03 0.03 0.04 0.05 0.05 0.05 0.04 0.03 0.03 0.03 0.02 0.02 0.01 0.02 0.02 0.02 0.02 0.02 0.03 0.04 0.04 0.03 0.03 0.03 0.02 0.02 0.03 0.03 0.02
0.00 0.01 0.01 0.02 0.02 0.03 0.03 0.03 0.03 0.03 0.04 0.05 0.04 0.03 0.03 0.03 0.04 0.05 0.05 0.05 0.04 0.04 0.03 0.03 0.02 0.02 0.02 0.02 0.02 0.02 0.02 0.02 0.03 0.03 0.02 0.02 0.02 0.02 0.02 0.02 0.02 0.02 0.02
0.01 0.01 0.01 0.02 0.02 0.02 0.03 0.02 0.03 0.03 0.04 0.05 0.05 0.04 0.03 0.03 0.03 0.05 0.06 0.05 0.03 0.03 0.03 0.03 0.03 0.03 0.02 0.02 0.02 0.02 0.02 0.02 0.02 0.02 0.02 0.02 0.02 0.02 0.01 0.01 0.02 0.02 0.01
0.01 0.01 0.01 0.01 0.01 0.02 0.02 0.02 0.02 0.02 0.03 0.04 0.05 0.05 0.05 0.04 0.03 0.04 0.04 0.03 0.03 0.03 0.03 0.04 0.04 0.03 0.02 0.02 0.03 0.03 0.03 0.02 0.02 0.02 0.03 0.03 0.03 0.02 0.01 0.01 0.01 0.01 0.01
0.01 0.02 0.02 0.02 0.01 0.01 0.01 0.01 0.00 0.01 0.01 0.03 0.03 0.04 0.05 0.04 0.03 0.03 0.03 0.03 0.02 0.02 0.02 0.02 0.02 0.02 0.02 0.02 0.02 0.02 0.02 0.02 0.02 0.03 0.03 0.03 0.02 0.02 0.01 0.01 0.01 0.01 0.01
0.01 0.02 0.03 0.03 0.02 0.01 0.00 0.00 0.00 0.00 0.00 0.02 0.03 0.03 0.03 0.03 0.03 0.04 0.03 0.03 0.03 0.03 0.02 0.02 0.02 0.02 0.02 0.02 0.03 0.03 0.03 0.04 0.03 0.03 0.03 0.02 0.02 0.02 0.01 0.01 0.01 0.01 0.01
0.00 0.01 0.01 0.01 0.01 0.01 0.00 0.00 0.00 0.00 0.00 0.01 0.03 0.02 0.02 0.02 0.02 0.02 0.03 0.04 0.04 0.04 0.03 0.03 0.04 0.04 0.03 0.03 0.03 0.03 0.03 0.03 0.03 0.02 0.02 0.02 0.02 0.02 0.01 0.01 0.01 0.01 0.01
0.01 0.01 0.01 0.01 0.01 0.01 0.00 0.00 0.00 0.00 0.01 0.01 0.02 0.02 0.02 0.02 0.01 0.02 0.02 0.03 0.04 0.04 0.04 0.04 0.04 0.04 0.04 0.04 0.03 0.03 0.02 0.02 0.02 0.02 0.02 0.02 0.02 0.02 0.02 0.02 0.01 0.01 0.01
0.01 0.01 0.01 0.01 0.01 0.01 0.01 0.01 0.01 0.01 0.01 0.01 0.02 0.02 0.03 0.02 0.02 0.02 0.03 0.04 0.04 0.04 0.04 0.03 0.03 0.04 0.04 0.05 0.04 0.04 0.03 0.03 0.02 0.02 0.02 0.02 0.02 0.02 0.02 0.02 0.02 0.02 0.01
0.01 0.01 0.01 0.01 0.01 0.01 0.02 0.02 0.02 0.01 0.01 0.01 0.02 0.02 0.03 0.03 0.03 0.03 0.03 0.04 0.04 0.03 0.03 0.03 0.03 0.03 0.04 0.04 0.04 0.03 0.03 0.03 0.03 0.03 0.03 0.02 0.02 0.02 0.03 0.03 0.03 0.02 0.02
MSLP
1018.34 1018.44 1018.58 1018.75 1018.91 1019.04 1019.13 1019.19 1019.21 1019.23 1019.25 1019.30 1019.38 1019.49 1019.61 1019.75 1019.87 1019.98 1020.05 1020.09 1020.09 1020.07 1020.04 1020.02 1020.03 1020.08 1020.19 1020.38 1020.65 1021.00 1021.42 1021.88 1022.36 1022.81 1023.20 1023.51 1023.70 1023.78 1023.75 1023.65 1023.50 1023.35 1023.22
1018.33 1018.43 1018.57 1018.74 1018.91 1019.07 1019.19 1019.29 1019.37 1019.44 1019.51 1019.60 1019.71 1019.84 1020.00 1020.16 1020.32 1020.47 1020.58 1020.66 1020.71 1020.72 1020.71 1020.69 1020.69 1020.72 1020.82 1021.00 1021.27 1021.64 1022.08 1022.58 1023.10 1023.60 1024.04 1024.38 1024.59 1024.68 1024.65 1024.53 1024.36 1024.17 1024.01
1018.30 1018.43 1018.59 1018.77 1018.95 1019.13 1019.29 1019.43 1019.55 1019.66 1019.77 1019.88 1020.02 1020.18 1020.35 1020.54 1020.73 1020.92 1021.09 1021.23 1021.33 1021.40 1021.44 1021.46 1021.49 1021.55 1021.66 1021.85 1022.13 1022.50 1022.96 1023.47 1024.00 1024.51 1024.96 1025.30 1025.51 1025.59 1025.55 1025.41 1025.22 1025.00 1024.81
1018.24 1018.41 1018.60 1018.81 1019.02 1019.22 1019.41 1019.58 1019.74 1019.88 1020.02 1020.17 1020.32 1020.50 1020.69 1020.90 1021.12 1021.35 1021.56 1021.76 1021.93 1022.08 1022.19 1022.28 1022.37 1022.47 1022.62 1022.83 1023.12 1023.49 1023.94 1024.44 1024.95 1025.45 1025.88 1026.20 1026.40 1026.47 1026.42 1026.27 1026.06 1025.83 1025.62
1018.13 1018.35 1018.58 1018.83 1019.07 1019.30 1019.52 1019.73 1019.93 1020.11 1020.28 1020.45 1020.63 1020.82 1021.03 1021.25 1021.49 1021.75 1022.01 1022.27 1022.51 1022.73 1022.92 1023.09 1023.24 1023.40 1023.59 1023.82 1024.12 1024.48 1024.91 1025.38 1025.86 1026.32 1026.72 1027.02 1027.20 1027.26 1027.21 1027.07 1026.87 1026.64 1026.43
1017.98 1018.25 1018.52 1018.80 1019.08 1019.35 1019.62 1019.87 1020.10 1020.33 1020.54 1020.74 1020.94 1021.15 1021.37 1021.60 1021.86 1022.14 1022.44 1022.74 1023.04 1023.32 1023.59 1023.83 1024.05 1024.26 1024.49 1024.74 1025.03 1025.38 1025.78 1026.21 1026.65 1027.06 1027.43 1027.71 1027.88 1027.94 1027.90 1027.79 1027.61 1027.42 1027.23
1017.79 1018.09 1018.41 1018.72 1019.04 1019.35 1019.66 1019.96 1020.25 1020.52 1020.78 1021.02 1021.26 1021.49 1021.72 1021.96 1022.23 1022.53 1022.84 1023.17 1023.51 1023.85 1024.17 1024.46 1024.73 1024.99 1025.25 1025.52 1025.81 1026.14 1026.50 1026.89 1027.29 1027.67 1028.00 1028.26 1028.43 1028.51 1028.50 1028.42 1028.29 1028.13 1027.97
1017.57 1017.89 1018.23 1018.57 1018.91 1019.26 1019.62 1019.98 1020.32 1020.66 1020.98 1021.27 1021.55 1021.80 1022.06 1022.32 1022.59 1022.89 1023.22 1023.56 1023.92 1024.29 1024.64 1024.97 1025.29 1025.58 1025.86 1026.14 1026.44 1026.75 1027.09 1027.45 1027.81 1028.15 1028.46 1028.71 1028.88 1028.98 1029.00 1028.96 1028.87 1028.75 1028.62
1017.34 1017.66 1017.99 1018.33 1018.70 1019.09 1019.49 1019.90 1020.31 1020.71 1021.09 1021.45 1021.77 1022.07 1022.35 1022.63 1022.91 1023.22 1023.55 1023.90 1024.27 1024.64 1025.02 1025.38 1025.72 1026.04 1026.35 1026.64 1026.95 1027.26 1027.59 1027.92 1028.26 1028.59 1028.87 1029.11 1029.29 1029.39 1029.44 1029.42 1029.36 1029.27 1029.16
1017.11 1017.39 1017.69 1018.03 1018.40 1018.80 1019.24 1019.70 1020.17 1020.64 1021.09 1021.51 1021.89 1022.23 1022.55 1022.86 1023.16 1023.47 1023.81 1024.16 1024.54 1024.92 1025.31 1025.70 1026.07 1026.42 1026.75 1027.07 1027.40 1027.72 1028.05 1028.39 1028.71 1029.03 1029.30 1029.53 1029.69 1029.79 1029.83 1029.82 1029.76 1029.68 1029.58
1016.87 1017.08 1017.34 1017.65 1018.00 1018.42 1018.88 1019.38 1019.90 1020.42 1020.93 1021.41 1021.85 1022.26 1022.62 1022.97 1023.30 1023.63 1023.99 1024.35 1024.74 1025.15 1025.56 1025.97 1026.37 1026.76 1027.13 1027.49 1027.84 1028.20 1028.55 1028.89 1029.21 1029.52 1029.78 1029.98 1030.12 1030.20 1030.22 1030.18 1030.11 1030.01 1029.90
1016.63 1016.76 1016.95 1017.21 1017.54 1017.95 1018.41 1018.93 1019.49 1020.06 1020.62 1021.16 1021.66 1022.12 1022.54 1022.93 1023.31 1023.69 1024.07 1024.47 1024.89 1025.33 1025.77 1026.22 1026.66 1027.09 1027.51 1027.92 1028.32 1028.71 1029.09 1029.44 1029.78 1030.07 1030.31 1030.49 1030.60 1030.64 1030.61 1030.54 1030.42 1030.29 1030.15
1016.37 1016.42 1016.54 1016.74 1017.04 1017.42 1017.88 1018.40 1018.98 1019.57 1020.17 1020.76 1021.31 1021.83 1022.31 1022.76 1023.20 1023.63 1024.07 1024.52 1024.99 1025.47 1025.96 1026.46 1026.95 1027.44 1027.91 1028.38 1028.82 1029.25 1029.66 1030.04 1030.38 1030.67 1030.89 1031.03 1031.10 1031.10 1031.02 1030.89 1030.73 1030.56 1030.39
1016.12 1016.09 1016.14 1016.28 1016.53 1016.88 1017.32 1017.84 1018.42 1019.02 1019.65 1020.26 1020.86 1021.43 1021.97 1022.49 1022.99 1023.49 1024.00 1024.51 1025.05 1025.59 1026.14 1026.69 1027.24 1027.78 1028.31 1028.83 1029.32 1029.79 1030.23 1030.63 1030.97 1031.25 1031.45 1031.57 1031.60 1031.55 1031.44 1031.27 1031.07 1030.86 1030.67
1015.90 1015.79 1015.78 1015.87 1016.08 1016.40 1016.81 1017.31 1017.87 1018.48 1019.10 1019.74 1020.36 1020.97 1021.57 1022.15 1022.73 1023.30 1023.88 1024.47 1025.07 1025.68 1026.29 1026.90 1027.50 1028.10 1028.67 1029.23 1029.76 1030.26 1030.72 1031.13 1031.48 1031.76 1031.95 1032.05 1032.06 1031.99 1031.85 1031.67 1031.45 1031.23 1031.03
1015.72 1015.55 1015.50 1015.56 1015.73 1016.02 1016.40 1016.87 1017.41 1018.00 1018.62 1019.26 1019.90 1020.54 1021.17 1021.81 1022.44 1023.09 1023.74 1024.39 1025.06 1025.73 1026.40 1027.06 1027.70 1028.34 1028.95 1029.53 1030.09 1030.60 1031.08 1031.50 1031.85 1032.13 1032.32 1032.42 1032.44 1032.37 1032.24 1032.07 1031.87 1031.67 1031.49
1015.60 1015.40 1015.32 1015.36 1015.51 1015.77 1016.13 1016.58 1017.09 1017.65 1018.25 1018.87 1019.51 1020.16 1020.83 1021.50 1022.18 1022.87 1023.58 1024.29 1025.01 1025.73 1026.44 1027.13 1027.81 1028.46 1029.09 1029.69 1030.26 1030.78 1031.26 1031.69 1032.05 1032.34 1032.54 1032.67 1032.71 1032.68 1032.59 1032.46 1032.31 1032.15 1032.01
1015.55 1015.34 1015.25 1015.28 1015.42 1015.67 1016.01 1016.43 1016.91 1017.44 1018.01 1018.61 1019.23 1019.88 1020.55 1021.23 1021.94 1022.67 1023.41 1024.16 1024.91 1025.65 1026.39 1027.10 1027.79 1028.46 1029.09 1029.69 1030.26 1030.79 1031.27 1031.70 1032.07 1032.38 1032.61 1032.78 1032.87 1032.90 1032.88 1032.82 1032.74 1032.65 1032.57
1015.57 1015.36 1015.27 1015.30 1015.44 1015.68 1016.00 1016.39 1016.84 1017.34 1017.87 1018.44 1019.04 1019.67 1020.32 1021.01 1021.72 1022.45 1023.20 1023.97 1024.73 1025.49 1026.23 1026.95 1027.65 1028.31 1028.95 1029.54 1030.11 1030.63 1031.12 1031.56 1031.95 1032.29 1032.56 1032.78 1032.94 1033.04 1033.10 1033.12 1033.12 1033.11 1033.09
1015.63 1015.43 1015.35 1015.39 1015.52 1015.75 1016.06 1016.43 1016.84 1017.30 1017.80 1018.33 1018.89 1019.48 1020.11 1020.78 1021.48 1022.20 1022.95 1023.71 1024.48 1025.23 1025.98 1026.70 1027.39 1028.05 1028.68 1029.27 1029.84 1030.37 1030.87 1031.33 1031.75 1032.12 1032.44 1032.71 1032.93 1033.11 1033.25 1033.36 1033.44 1033.50 1033.54
1015.70 1015.51 1015.44 1015.47 1015.61 1015.82 1016.11 1016.45 1016.83 1017.25 1017.71 1018.19 1018.72 1019.28 1019.88 1020.52 1021.20 1021.90 1022.64 1023.39 1024.14 1024.89 1025.62 1026.34 1027.03 1027.69 1028.33 1028.93 1029.51 1030.06 1030.57 1031.06 1031.51 1031.92 1032.29 1032.61 1032.90 1033.14 1033.35 1033.52 1033.67 1033.79 1033.88
1015.74 1015.56 1015.48 1015.51 1015.63 1015.82 1016.08 1016.39 1016.74 1017.12 1017.54 1017.99 1018.48 1019.01 1019.58 1020.19 1020.85 1021.54 1022.25 1022.99 1023.73 1024.47 1025.20 1025.92 1026.62 1027.29 1027.94 1028.56 1029.16 1029.74 1030.28 1030.80 1031.28 1031.73 1032.15 1032.52 1032.85 1033.15 1033.40 1033.63 1033.82 1033.99 1034.12
1015.73 1015.54 1015.44 1015.44 1015.53 1015.69 1015.91 1016.18 1016.50 1016.84 1017.23 1017.65 1018.12 1018.63 1019.18 1019.78 1020.42 1021.10 1021.81 1022.53 1023.27 1024.01 1024.75 1025.47 1026.18 1026.88 1027.55 1028.20 1028.83 1029.44 1030.03 1030.58 1031.10 1031.59 1032.04 1032.45 1032.81 1033.14 1033.43 1033.69 1033.91 1034.10 1034.25
1015.64 1015.42 1015.30 1015.26 1015.30 1015.41 1015.59 1015.82 1016.09 1016.41 1016.77 1017.18 1017.63 1018.14 1018.69 1019.29 1019.93 1020.61 1021.32 1022.05 1022.80 1023.55 1024.29 1025.03 1025.76 1026.48 1027.19 1027.87 1028.54 1029.19 1029.81 1030.40 1030.96 1031.48 1031.96 1032.39 1032.78 1033.13 1033.43 1033.70 1033.94 1034.14 1034.31
1015.45 1015.20 1015.03 1014.94 1014.93 1014.99 1015.11 1015.29 1015.53 1015.82 1016.16 1016.57 1017.03 1017.54 1018.11 1018.73 1019.39 1020.10 1020.82 1021.57 1022.33 1023.10 1023.86 1024.62 1025.37 1026.12 1026.85 1027.57 1028.27 1028.96 1029.62 1030.24 1030.83 1031.38 1031.89 1032.34 1032.74 1033.10 1033.41 1033.68 1033.92 1034.13 1034.31
1015.17 1014.88 1014.65 1014.51 1014.43 1014.43 1014.49 1014.63 1014.83 1015.10 1015.44 1015.85 1016.33 1016.87 1017.48 1018.13 1018.83 1019.57 1020.33 1021.11 1021.89 1022.68 1023.46 1024.24 1025.01 1025.78 1026.53 1027.28 1028.01 1028.72 1029.41 1030.07 1030.69 1031.26 1031.79 1032.25 1032.67 1033.03 1033.35 1033.63 1033.87 1034.09 1034.28
Thickness
5693 5692 5692 5691 5691 5690 5689 5690 5690 5689 5689 5688 5687 5686 5685 5684 5683 5681 5680 5678 5676 5674 5673 5672 5670 5669 5667 5666 5664 5662 5659 5656 5649 5646 5646 5646 5645 5644 5642 5641 5640 5638 5637
5692 5691 5690 5689 5689 5688 5688 5688 5688 5687 5687 5686 5685 5684 5683 5681 5680 5679 5677 5675 5673 5671 5669 5668 5666 5666 5663 5662 5661 5659 5656 5653 5649 5643 5641 5641 5640 5639 5637 5636 5634 5633 5631
5690 5689 5688 5687 5687 5686 5686 5685 5685 5685 5685 5684 5683 5681 5680 5679 5678 5676 5674 5672 5670 5668 5667 5665 5663 5662 5660 5658 5657 5655 5652 5650 5646 5642 5637 5636 5635 5633 5631 5630 5628 5627 5626
5689 5687 5686 5685 5685 5684 5684 5683 5683 5683 5682 5681 5680 5679 5678 5677 5675 5673 5671 5669 5667 5665 5663 5662 5661 5660 5658 5656 5653 5651 5648 5645 5641 5637 5633 5630 5628 5627 5625 5622 5620 5619 5618
5687 5685 5684 5684 5683 5682 5681 5680 5680 5679 5679 5678 5677 5676 5675 5674 5673 5670 5668 5666 5663 5661 5659 5658 5658 5657 5656 5654 5651 5647 5644 5639 5635 5631 5627 5625 5622 5620 5618 5616 5614 5612 5611
5684 5683 5683 5681 5679 5678 5677 5677 5676 5675 5675 5674 5673 5672 5671 5671 5670 5669 5666 5662 5660 5657 5655 5654 5653 5652 5651 5650 5648 5646 5642 5637 5631 5627 5623 5620 5618 5617 5615 5613 5609 5605 5602
5682 5681 5680 5679 5677 5675 5675 5673 5672 5671 5670 5670 5669 5668 5667 5667 5667 5665 5663 5659 5656 5654 5651 5650 5649 5648 5646 5644 5643 5641 5639 5636 5633 5628 5622 5620 5617 5616 5612 5608 5604 5601 5598
5679 5678 5677 5676 5674 5672 5671 5669 5668 5667 5666 5665 5665 5664 5663 5663 5662 5661 5658 5655 5652 5650 5648 5646 5644 5643 5641 5639 5637 5634 5632 5630 5628 5626 5623 5620 5617 5614 5611 5607 5603 5597 5593
5675 5675 5674 5673 5670 5668 5666 5665 5664 5663 5662 5661 5661 5660 5659 5658 5658 5656 5654 5649 5646 5644 5643 5642 5641 5639 5638 5635 5632 5629 5626 5625 5624 5621 5619 5616 5613 5610 5607 5602 5596 5591 5586
5674 5673 5672 5670 5668 5666 5664 5663 5661 5660 5658 5657 5656 5656 5655 5654 5653 5652 5649 5645 5641 5639 5638 5637 5636 5635 5633 5631 5627 5624 5621 5619 5617 5615 5612 5609 5607 5604 5601 5597 5593 5587 5581
5673 5671 5669 5667 5665 5663 5661 5659 5657 5655 5653 5652 5650 5650 5649 5649 5648 5646 5644 5640 5637 5634 5632 5631 5631 5630 5628 5626 5624 5621 5619 5616 5612 5608 5605 5602 5599 5597 5594 5591 5588 5584 5578
5669 5667 5665 5663 5662 5660 5657 5655 5653 5650 5647 5645 5644 5643 5643 5643 5642 5641 5639 5636 5634 5630 5628 5627 5626 5625 5623 5621 5619 5617 5614 5610 5606 5601 5598 5595 5592 5590 5588 5585 5582 5579 5575
5663 5661 5659 5658 5657 5655 5652 5649 5647 5644 5642 5639 5638 5636 5636 5636 5635 5635 5633 5631 5629 5626 5624 5622 5620 5618 5617 5615 5613 5610 5607 5603 5599 5595 5592 5590 5588 5585 5582 5578 5575 5571 5568
5658 5656 5654 5652 5650 5649 5647 5645 5642 5639 5636 5634 5632 5631 5630 5629 5628 5628 5626 5624 5622 5620 5617 5615 5613 5610 5608 5606 5604 5602 5599 5597 5593 5590 5587 5584 5581 5578 5574 5571 5567 5563 5558
5652 5650 5648 5646 5644 5642 5641 5639 5637 5636 5634 5631 5629 5627 5625 5624 5625 5624 5621 5619 5616 5614 5610 5607 5603 5601 5598 5597 5595 5593 5591 5588 5585 5583 5580 5577 5574 5570 5567 5563 5559 5555 5551
5646 5644 5642 5639 5637 5635 5633 5631 5630 5630 5629 5627 5626 5623 5622 5622 5620 5618 5615 5613 5611 5608 5603 5599 5597 5594 5592 5590 5588 5585 5583 5581 5579 5576 5573 5570 5567 5564 5560 5556 5552 5548 5543
5641 5638 5635 5633 5631 5628 5626 5624 5622 5621 5621 5619 5618 5617 5616 5615 5614 5612 5609 5606 5602 5599 5595 5593 5591 5589 5587 5584 5582 5580 5578 5576 5573 5569 5566 5563 5560 5557 5553 5549 5545 5540 5536
5635 5632 5629 5626 5624 5622 5620 5618 5616 5613 5611 5610 5610 5609 5609 5608 5606 5604 5601 5596 5592 5590 5588 5587 5585 5583 5581 5578 5576 5574 5571 5568 5565 5563 5560 5557 5554 5550 5546 5542 5538 5534 5530
5628 5625 5622 5619 5617 5614 5612 5610 5608 5606 5603 5601 5600 5600 5600 5599 5597 5595 5593 5590 5587 5585 5582 5581 5579 5577 5574 5572 5570 5567 5564 5562 5559 5556 5553 5550 5547 5543 5539 5535 5531 5527 5523
5620 5618 5615 5611 5609 5606 5604 5601 5598 5596 5594 5592 5591 5591 5590 5588 5586 5585 5584 5582 5581 5579 5577 5575 5572 5570 5567 5565 5562 5560 5557 5555 5552 5550 5547 5543 5540 5536 5533 5529 5525 5520 5516
5611 5608 5607 5603 5601 5599 5596 5593 5591 5588 5586 5584 5584 5584 5583 5580 5579 5578 5576 5575 5574 5572 5571 5568 5565 5563 5560 5558 5555 5553 5550 5548 5545 5542 5540 5537 5533 5529 5526 5522 5518 5514 5510
5602 5599 5597 5595 5592 5590 5587 5585 5583 5581 5579 5577 5576 5575 5573 5571 5571 5570 5569 5568 5567 5566 5564 5561 5558 5556 5554 5551 5549 5546 5543 5541 5538 5535 5532 5529 5526 5522 5518 5514 5510 5506 5502
5594 5591 5589 5586 5584 5583 5580 5577 5575 5573 5571 5570 5568 5566 5565 5563 5562 5562 5561 5560 5559 5557 5556 5553 5551 5548 5546 5544 5541 5539 5536 5534 5532 5529 5525 5522 5518 5514 5510 5506 5502 5498 5494
5585 5582 5580 5577 5575 5573 5571 5569 5567 5565 5564 5562 5560 5559 5558 5556 5555 5555 5554 5553 5551 5549 5547 5545 5543 5541 5539 5536 5534 5531 5529 5527 5523 5520 5517 5514 5510 5506 5502 5498 5494 5490 5486
5575 5573 5571 5569 5567 5565 5563 5561 5560 5558 5556 5554 5553 5551 5549 5548 5547 5546 5545 5544 5542 5540 5539 5536 5534 5532 5530 5528 5526 5524 5521 5518 5515 5512 5508 5505 5501 5498 5494 5490 5486 5481 5477
5566 5564 5562 5560 5559 5557 5556 5554 5552 5551 5549 5548 5545 5543 5542 5540 5539 5538 5537 5535 5534 5532 5530 5528 5526 5524 5521 5519 5517 5515 5512 5509 5507 5503 5500 5496 5493 5489 5485 5481 5477 5473 5468